[[{"header":{"parameterUnit":"m.s-1","parameterCategory":1,"la1":30.2991,"la2":30.254,"lo1":-89.0895,"lo2":-89.0444,"dy":0.0017,"dx":0.0017,"nx":28,"ny":28,"refTime":"2024-04-30T21:00:00:Z","depth":0,"parameterNumber":2,"parameterNumberName":"U-component_of_WINDS"},"data":[0,0,0,0,0,0,0,0,0,0,0,0,0,0,0,0,0,0,0,0,0,0,0,0,0,0,0,0,0,0,0,0,0,0,0,0,0,0,0,0,0,0,0,0,0,0,0,0,0,0,0,0,0,0,0,0,0,0,-1.067,-1.0669,0,-1.0645,-1.0645,-1.0645,-1.061,-1.061,-1.0609,-1.0609,-1.0584,-1.0584,-1.0584,0,0,0,0,0,0,0,0,0,0,0,0,0,-1.0687,-1.0687,-1.067,-1.0669,-1.0669,-1.0646,-1.0645,-1.0645,-1.0611,-1.061,-1.0609,-1.0608,-1.0585,-1.0584,-1.0584,0,0,0,0,0,0,0,0,0,0,0,0,0,-1.0673,-1.0687,-1.067,-1.0649,-1.0647,-1.0646,-1.0645,-1.0645,-1.0611,-1.061,-1.0609,-1.0608,-1.0585,-1.0584,-1.0584,-1.0601,0,0,-1.0584,-1.0584,0,0,0,0,0,0,0,0,-1.0673,-1.0672,-1.0652,-1.0651,-1.0648,-1.063,-1.0642,-1.063,-1.0611,-1.0625,-1.0609,-1.0608,-1.06,-1.0599,-1.0596,-1.06,-1.0599,-1.0584,-1.0584,-1.0584,-1.0584,0,0,0,0,0,0,0,-1.0675,-1.0673,-1.066,-1.0652,-1.065,-1.0641,-1.0638,-1.064,-1.0618,-1.0623,-1.0621,-1.0618,-1.0599,-1.0597,-1.0596,-1.0599,-1.0584,-1.0584,-1.0584,-1.0584,-1.0614,-1.0615,0,0,0,0,0,0,-1.0678,-1.0674,-1.0661,-1.0659,-1.0659,-1.0642,-1.0638,-1.0637,-1.0618,-1.0614,-1.0619,-1.0617,-1.0597,-1.0596,-1.0595,-1.0612,-1.0584,-1.0584,-1.0583,-1.0614,-1.0615,-1.0616,0,0,0,0,0,0,-1.0679,-1.0678,-1.0662,-1.0666,-1.0663,-1.0642,-1.0641,-1.0637,-1.0634,-1.0614,-1.061,-1.0621,-1.0596,-1.0595,-1.06,-1.0611,-1.0584,-1.0583,-1.0612,-1.0614,-1.0615,-1.0649,0,0,0,0,0,0,-1.068,-1.0678,-1.0684,-1.0666,-1.0663,-1.0667,-1.0642,-1.0637,-1.0634,-1.0631,-1.0615,-1.0611,-1.0596,-1.06,-1.0599,-1.061,-1.0583,-1.0611,-1.0613,-1.0615,-1.0646,-1.0651,-1.0655,0,0,0,0,0,-1.068,-1.0695,-1.0685,-1.0683,-1.067,-1.0668,-1.0666,-1.0648,-1.0635,-1.0641,-1.0628,-1.0612,-1.061,-1.0601,-1.06,-1.0611,-1.061,-1.0613,-1.0615,-1.0645,-1.065,-1.0655,0,0,0,0,0,0,-1.0715,-1.0692,-1.0681,-1.069,-1.0681,-1.0662,-1.0669,-1.0654,-1.0649,-1.0647,-1.0624,-1.0621,-1.0628,-1.062,-1.061,-1.0626,-1.0608,-1.061,-1.0631,-1.0636,-1.064,-1.0642,-1.0583,0,0,0,0,0,-1.0723,-1.0723,-1.0704,-1.0714,-1.071,-1.069,-1.0689,-1.0675,-1.0665,-1.0662,-1.0649,-1.0641,-1.0638,-1.0637,-1.0633,-1.0645,-1.0641,-1.0653,-1.0657,-1.066,-1.0662,-1.0667,-1.0672,-1.0622,-1.0622,-1.0622,0,0,-1.0741,-1.0729,-1.073,-1.072,-1.0712,-1.0712,-1.0687,-1.0689,-1.0689,-1.0662,-1.0665,-1.0656,-1.0645,-1.0653,-1.0656,-1.0647,-1.0675,-1.0663,-1.0666,-1.0666,-1.067,-1.0675,-1.0679,-1.0624,-1.0623,-1.0623,0,0,-1.0774,-1.0765,-1.0771,-1.0764,-1.0751,-1.0738,-1.074,-1.0723,-1.0716,-1.0719,-1.0699,-1.0699,-1.0695,-1.0687,-1.0683,-1.0713,-1.0697,-1.0713,-1.0734,-1.074,-1.0744,-1.0747,-1.0757,-1.0761,-1.0715,-1.0715,-1.0715,0,-1.0797,-1.0797,-1.0777,-1.0779,-1.0775,-1.0751,-1.0758,-1.0751,-1.0739,-1.0736,-1.0726,-1.072,-1.0711,-1.0717,-1.0724,-1.0722,-1.0723,-1.0714,-1.0745,-1.0748,-1.0751,-1.076,-1.0764,-1.0716,-1.0716,-1.0716,-1.0716,0,-1.0826,-1.0826,-1.0833,-1.0821,-1.0818,-1.0823,-1.0804,-1.0803,-1.079,-1.0778,-1.0782,-1.077,-1.0763,-1.0764,-1.0752,-1.0768,-1.0762,-1.0749,-1.073,-1.0758,-1.0766,-1.0769,-1.0719,-1.0718,-1.0718,-1.0717,0,0,-1.0879,-1.0856,-1.0859,-1.0853,-1.0837,-1.0837,-1.0841,-1.0834,-1.0834,-1.0826,-1.0828,-1.0825,-1.0812,-1.0808,-1.0794,-1.0799,-1.0822,-1.0784,-1.0784,-1.0791,-1.0839,-1.0849,-1.0853,-1.0812,-1.0813,-1.0813,-1.084,0,-1.0908,-1.0912,-1.0895,-1.0904,-1.0903,-1.088,-1.0883,-1.0874,-1.0863,-1.0861,-1.0849,-1.0847,-1.0831,-1.0828,-1.0831,-1.0819,-1.0832,-1.0817,-1.0814,-1.0814,-1.0816,-1.0858,-1.0868,-1.0894,-1.0843,-1.0844,-1.0844,0,-1.0942,-1.0935,-1.0944,-1.0928,-1.0927,-1.093,-1.0922,-1.0921,-1.091,-1.0902,-1.0897,-1.0881,-1.0883,-1.0866,-1.0869,-1.0859,-1.0857,-1.085,-1.0851,-1.0849,-1.083,-1.0856,-1.0902,-1.0905,-1.0849,-1.0849,-1.0848,0,-1.0978,-1.0972,-1.0976,-1.0972,-1.0954,-1.0956,-1.0949,-1.0937,-1.0934,-1.0927,-1.0925,-1.0919,-1.0916,-1.0912,-1.0895,-1.0884,-1.0899,-1.088,-1.0892,-1.0892,-1.0896,-1.0895,-1.094,-1.0896,-1.0896,-1.0896,-1.0896,0,-1.1012,-1.1018,-1.0992,-1.0995,-1.1001,-1.0981,-1.0988,-1.0978,-1.0968,-1.0968,-1.0948,-1.0949,-1.0927,-1.0925,-1.0912,-1.0916,-1.0915,-1.0908,-1.0904,-1.0909,-1.091,-1.0907,-1.0904,-1.0897,-1.0896,-1.0896,-1.0896,0,-1.1053,-1.1037,-1.104,-1.1022,-1.1017,-1.1023,-1.1007,-1.1009,-1.0997,-1.0998,-1.0997,-1.0978,-1.0975,-1.0957,-1.0951,-1.0942,-1.095,-1.0943,-1.0953,-1.0951,-1.0963,-1.0962,-1.1007,-1.1011,-1.0965,-1.0965,-1.0966,0,-1.1075,-1.108,-1.1062,-1.1061,-1.1054,-1.1052,-1.1049,-1.1029,-1.1027,-1.1015,-1.1018,-1.1013,-1.1008,-1.1004,-1.099,-1.0984,-1.0976,-1.0993,-1.0975,-1.098,-1.0976,-1.0975,-1.0975,-1.0996,-1.0997,-1.0997,-1.0998,0,-1.1116,-1.1107,-1.1103,-1.1097,-1.1093,-1.1087,-1.1079,-1.1079,-1.1058,-1.1056,-1.1052,-1.1048,-1.1041,-1.1037,-1.1029,-1.1021,-1.1005,-1.1003,-1.1005,-1.101,-1.1016,-1.1012,-1.0962,-1.1002,-1.1002,-1.1001,-1.1001,-1.1001,-1.1148,-1.115,-1.1138,-1.1134,-1.1126,-1.112,-1.112,-1.1108,-1.1105,-1.1097,-1.1086,-1.1084,-1.1073,-1.106,-1.1054,-1.1052,-1.1043,-1.1046,-1.1047,-1.1048,-1.105,-1.1017,-1.105,-1.105,-1.105,-1.105,-1.105,0,-1.1187,-1.1178,-1.1174,-1.1164,-1.1161,-1.1147,-1.1138,-1.1136,-1.1135,-1.1126,-1.1121,-1.1117,-1.1112,-1.1098,-1.1091,-1.1093,-1.1085,-1.1091,-1.1091,-1.1089,-1.1059,-1.1057,-1.1097,-1.1097,-1.1097,-1.1097,-1.1097,-1.1097,-1.1206,-1.1209,-1.12,-1.1198,-1.1189,-1.1187,-1.1183,-1.1177,-1.1169,-1.1165,-1.1161,-1.1152,-1.114,-1.1133,-1.1128,-1.1124,-1.1122,-1.1131,-1.1124,-1.1096,-1.1091,-1.1087,-1.1085,-1.1131,-1.1131,-1.1154,-1.1154,-1.1155]},{"header":{"parameterUnit":"m.s-1","parameterCategory":1,"la1":30.2991,"la2":30.254,"lo1":-89.0895,"lo2":-89.0444,"dy":0.0017,"dx":0.0017,"nx":28,"ny":28,"refTime":"2024-04-30T21:00:00:Z","depth":0,"parameterNumber":3,"parameterNumberName":"V-component_of_WINDS"},"data":[0,0,0,0,0,0,0,0,0,0,0,0,0,0,0,0,0,0,0,0,0,0,0,0,0,0,0,0,0,0,0,0,0,0,0,0,0,0,0,0,0,0,0,0,0,0,0,0,0,0,0,0,0,0,0,0,0,0,0.5608,0.5608,0,0.5625,0.5625,0.5625,0.5626,0.5625,0.5625,0.5625,0.5643,0.5644,0.5645,0,0,0,0,0,0,0,0,0,0,0,0,0,0.5576,0.5577,0.5608,0.5608,0.5608,0.5625,0.5625,0.5625,0.5626,0.5625,0.5625,0.5625,0.5643,0.5644,0.5645,0,0,0,0,0,0,0,0,0,0,0,0,0,0.5591,0.5577,0.5608,0.561,0.5611,0.5625,0.5625,0.5625,0.5626,0.5625,0.5625,0.5625,0.5643,0.5644,0.5645,0.5657,0,0,0.5648,0.5648,0,0,0,0,0,0,0,0,0.559,0.5592,0.561,0.561,0.5611,0.5623,0.5621,0.5636,0.5626,0.562,0.5625,0.5625,0.5637,0.5638,0.5642,0.5658,0.5659,0.5648,0.5649,0.5649,0.5649,0,0,0,0,0,0,0,0.5589,0.5592,0.5614,0.561,0.561,0.5611,0.5613,0.5624,0.563,0.5621,0.5621,0.5623,0.5637,0.5641,0.5643,0.5659,0.5648,0.5649,0.5649,0.565,0.5688,0.5689,0,0,0,0,0,0,0.5588,0.5591,0.5614,0.5615,0.5599,0.5612,0.5614,0.5619,0.563,0.5631,0.5623,0.5623,0.564,0.5641,0.5643,0.566,0.5649,0.565,0.5651,0.5688,0.5688,0.5689,0,0,0,0,0,0,0.5587,0.559,0.5613,0.5603,0.5606,0.5613,0.5619,0.562,0.5624,0.5632,0.5633,0.5626,0.5639,0.5642,0.5654,0.566,0.565,0.5651,0.5687,0.5688,0.5689,0.5692,0,0,0,0,0,0,0.5586,0.5589,0.5594,0.5603,0.5606,0.5624,0.5619,0.562,0.5626,0.5625,0.5635,0.5636,0.5639,0.5653,0.5655,0.5662,0.5652,0.5687,0.5688,0.5688,0.5692,0.5693,0.5694,0,0,0,0,0,0.5585,0.5594,0.5594,0.5597,0.5612,0.5624,0.5626,0.5629,0.5626,0.5631,0.5636,0.5636,0.5659,0.5654,0.5657,0.5664,0.5686,0.5687,0.5688,0.5691,0.5693,0.5694,0,0,0,0,0,0,0.5586,0.5595,0.5596,0.5608,0.5615,0.5624,0.563,0.5631,0.5639,0.5638,0.5642,0.5644,0.5657,0.5661,0.5655,0.5677,0.5673,0.5674,0.5674,0.5675,0.5677,0.5675,0.5653,0,0,0,0,0,0.5587,0.5596,0.5604,0.5614,0.5618,0.5623,0.5628,0.563,0.5638,0.5641,0.5647,0.5655,0.5664,0.567,0.5678,0.5692,0.5695,0.5698,0.57,0.5701,0.5702,0.5711,0.5713,0.5692,0.5692,0.5692,0,0,0.5591,0.5597,0.5602,0.5614,0.562,0.5629,0.5626,0.5635,0.5642,0.5643,0.5655,0.566,0.5668,0.5682,0.5688,0.5686,0.5708,0.5702,0.5702,0.5703,0.5712,0.5714,0.5716,0.5692,0.5692,0.5692,0,0,0.5602,0.5607,0.5617,0.5623,0.5632,0.5635,0.5638,0.5647,0.565,0.5662,0.5663,0.5672,0.5687,0.5694,0.5699,0.5713,0.5714,0.5716,0.5723,0.5731,0.5733,0.5734,0.574,0.5742,0.5718,0.5718,0.5718,0,0.5605,0.5619,0.5622,0.5631,0.5637,0.5638,0.5648,0.5654,0.5665,0.5669,0.5667,0.5687,0.5693,0.5708,0.5712,0.5716,0.572,0.5715,0.5732,0.5734,0.5735,0.5741,0.5743,0.5718,0.5718,0.5718,0.5718,0,0.5623,0.5632,0.5639,0.565,0.5656,0.5666,0.5671,0.5678,0.5679,0.5684,0.5697,0.5704,0.5715,0.5718,0.572,0.5735,0.5733,0.5731,0.5727,0.5738,0.5743,0.5745,0.5718,0.5718,0.5718,0.5718,0,0,0.5635,0.5648,0.565,0.5656,0.5666,0.5673,0.5684,0.5694,0.57,0.5708,0.5717,0.5731,0.5729,0.5735,0.5738,0.5745,0.5758,0.5743,0.5743,0.5746,0.5775,0.5777,0.5779,0.5758,0.5758,0.5758,0.5775,0,0.5647,0.5665,0.5669,0.5685,0.5694,0.5696,0.5705,0.5712,0.5717,0.5726,0.5731,0.574,0.5737,0.5741,0.5749,0.5754,0.5764,0.5753,0.5767,0.5767,0.5765,0.5782,0.5784,0.5799,0.5777,0.5777,0.5777,0,0.5665,0.5673,0.569,0.57,0.5704,0.5712,0.5723,0.5731,0.574,0.5742,0.575,0.5752,0.5763,0.5758,0.5774,0.5767,0.5773,0.5777,0.5778,0.5779,0.5773,0.5785,0.5804,0.5806,0.5781,0.578,0.578,0,0.5673,0.5688,0.5701,0.5705,0.5717,0.5723,0.5728,0.5737,0.5743,0.5752,0.5757,0.5767,0.5773,0.5781,0.5786,0.5782,0.5803,0.5797,0.5806,0.5806,0.5811,0.581,0.5831,0.5813,0.5813,0.5813,0.5813,0,0.5687,0.5697,0.5705,0.5713,0.5725,0.5729,0.5741,0.5746,0.5754,0.5763,0.5765,0.5774,0.5779,0.5789,0.5793,0.5806,0.5809,0.5812,0.5813,0.5812,0.5812,0.5816,0.5816,0.5814,0.5814,0.5813,0.5813,0,0.5698,0.5703,0.5717,0.5727,0.573,0.5739,0.5747,0.5755,0.576,0.5772,0.5775,0.5782,0.5794,0.58,0.5814,0.5816,0.5832,0.5832,0.5829,0.583,0.5838,0.5838,0.5863,0.5867,0.5846,0.5846,0.5846,0,0.5707,0.5715,0.5726,0.5733,0.5738,0.5748,0.5755,0.5759,0.5766,0.5778,0.5785,0.5796,0.5806,0.5825,0.5832,0.5843,0.5844,0.5852,0.5845,0.5845,0.5845,0.5844,0.5846,0.5853,0.5853,0.5853,0.5853,0,0.5723,0.5725,0.5735,0.5746,0.5754,0.5762,0.5771,0.5776,0.5782,0.579,0.5802,0.5809,0.5824,0.5836,0.5848,0.5854,0.5855,0.5855,0.5858,0.5858,0.5856,0.5858,0.5833,0.5855,0.5855,0.5855,0.5855,0.5854,0.5734,0.5742,0.5751,0.5762,0.5769,0.5777,0.5785,0.5791,0.5801,0.5813,0.5816,0.5829,0.5838,0.5855,0.5861,0.5871,0.587,0.5873,0.5874,0.5875,0.5876,0.5854,0.5873,0.5873,0.5873,0.5873,0.5873,0,0.5751,0.5757,0.5767,0.5779,0.5787,0.5787,0.5797,0.5805,0.5816,0.5825,0.5834,0.5849,0.586,0.5869,0.5881,0.5888,0.5889,0.5891,0.5891,0.5892,0.5877,0.5874,0.589,0.589,0.589,0.589,0.589,0.589,0.576,0.5774,0.5777,0.5795,0.5801,0.5813,0.5819,0.5827,0.5834,0.585,0.586,0.5865,0.5874,0.5887,0.5898,0.59,0.5905,0.5907,0.591,0.5895,0.5893,0.5892,0.5889,0.5908,0.5908,0.5925,0.5925,0.5925]}]]